Theta_e
330 335 344 345 345 345 345 345 345 345 345 345 342 340 337 336 335 335 334 334 335 335 335 335 335 334 334 332 332 332 332 332 333 333 334 334 334 334 333 332 332 327 331
332 336 343 346 345 344 345 346 347 346 345 345 343 340 337 335 334 334 334 334 334 335 335 335 334 334 333 332 331 332 332 332 332 332 331 333 334 334 333 332 332 329 333
332 336 340 345 345 345 345 347 347 346 346 345 343 339 336 335 334 334 334 334 334 334 334 333 333 332 331 330 330 330 332 332 331 331 329 322 322 334 335 334 333 332 332
333 338 340 343 345 345 345 346 347 346 345 344 341 338 336 336 334 334 334 334 334 334 333 332 333 334 334 333 332 332 333 333 330 325 317 321 321 333 332 334 335 333 332
335 338 339 342 343 344 345 346 345 345 345 344 342 338 336 335 335 334 335 334 333 333 332 334 335 334 334 333 333 333 333 332 329 322 316 318 318 328 331 332 332 334 333
336 337 339 341 341 342 343 344 344 343 342 341 340 337 337 338 338 336 336 332 331 332 333 333 333 333 332 332 332 331 330 330 326 318 318 319 319 330 332 332 332 333 335
335 336 337 339 340 340 341 341 342 340 338 336 335 335 335 335 335 334 331 331 331 331 331 331 331 332 332 333 333 332 331 330 322 318 318 319 318 330 332 332 333 333 333
335 335 335 333 337 338 339 339 339 337 335 334 334 334 333 333 332 332 331 331 331 330 330 330 330 331 332 333 333 332 331 329 323 319 318 318 323 331 332 332 333 333 333
334 332 332 332 332 333 335 336 337 337 336 336 336 335 334 334 333 332 333 331 330 330 330 331 331 332 332 333 333 332 329 328 322 319 320 319 325 331 333 333 333 334 334
332 331 329 328 329 328 328 329 332 334 335 335 334 332 330 329 329 328 327 331 330 330 330 331 332 333 333 333 332 330 327 326 320 319 319 319 330 332 333 334 335 335 335
331 330 328 327 325 326 326 324 326 328 329 329 328 326 324 323 323 322 324 327 330 330 331 332 334 334 332 328 327 326 325 323 321 320 320 325 332 333 334 336 336 336 336
327 328 328 326 324 324 328 323 324 325 324 323 322 322 323 322 323 325 320 323 327 327 330 332 332 331 326 324 323 324 323 324 323 322 322 328 334 336 337 337 337 336 335
326 327 327 326 325 323 323 322 322 323 323 323 323 324 324 325 322 322 322 323 323 320 323 324 325 327 328 326 329 325 325 325 323 323 324 327 331 335 335 333 334 334 335
323 325 326 327 325 321 321 321 322 322 322 323 324 325 323 322 322 322 322 322 324 327 323 325 325 325 324 323 322 321 321 321 321 322 321 321 326 331 333 333 334 333 333
322 324 324 325 325 321 319 322 323 323 323 324 325 325 324 322 322 323 325 329 331 331 327 324 323 321 319 318 317 317 317 315 315 316 316 317 324 330 333 333 332 331 331
321 322 323 324 324 321 320 323 324 324 324 324 324 324 324 324 324 327 328 327 325 325 323 320 317 314 313 313 313 314 313 311 312 313 314 315 319 317 320 323 324 324 323
320 321 322 322 323 322 323 324 327 327 324 322 322 323 322 326 328 323 321 320 319 319 316 313 312 312 309 308 307 310 310 310 310 309 310 311 310 310 311 315 315 316 319
320 321 323 326 323 323 326 327 326 324 317 317 316 317 318 319 319 318 317 315 314 310 309 309 308 308 303 303 302 306 306 307 306 306 306 303 299 299 303 308 310 314 317
322 323 324 325 324 324 324 320 317 314 312 311 310 311 311 313 314 313 311 310 307 305 303 304 304 305 299 299 301 305 305 302 302 303 300 295 295 296 297 303 304 311 311
323 324 325 326 325 323 317 315 312 308 305 304 304 304 305 306 308 307 305 304 303 300 299 299 300 302 298 296 302 303 304 299 300 299 294 292 294 294 295 296 297 301 302
323 323 324 324 323 321 317 315 312 305 301 299 299 299 299 300 300 300 299 299 300 297 296 295 296 298 296 295 296 300 305 300 298 295 293 289 291 293 293 294 294 293 292
312 318 319 321 323 323 321 313 307 300 297 296 296 296 297 297 297 297 297 297 298 297 294 294 295 296 296 295 292 297 294 295 294 293 290 289 289 291 292 294 291 288 288
303 308 311 313 313 313 308 302 299 297 295 294 293 293 294 295 295 295 295 294 295 295 292 292 293 293 292 294 292 291 286 285 288 294 289 287 288 288 289 291 289 287 286
298 302 303 306 307 310 308 304 302 297 292 292 293 293 292 293 293 293 293 294 293 293 292 292 292 291 291 286 289 291 289 286 282 283 289 287 286 287 288 289 286 285 284
300 300 301 303 301 300 300 298 295 293 293 293 293 292 292 292 292 292 292 293 292 292 291 289 287 286 287 286 286 286 287 286 285 283 281 283 284 285 286 286 284 283 282
299 299 300 299 299 299 297 296 295 294 294 294 293 292 292 291 291 291 291 291 291 289 288 287 286 285 285 285 285 285 284 283 282 281 280 280 280 283 285 286 284 283 281
Wind_Speed
3 6 9 10 8 6 6 10 11 10 15 16 16 14 13 12 12 11 11 11 12 12 12 13 12 12 12 12 11 11 11 11 10 9 10 11 11 12 12 12 11 6 11
7 6 8 10 8 4 7 13 13 11 15 16 15 14 13 12 11 11 10 11 11 12 12 12 12 11 10 10 10 9 10 10 10 6 5 7 10 10 11 11 11 9 11
8 6 6 10 9 7 7 13 13 11 15 16 14 13 12 11 11 11 10 10 10 11 10 10 9 9 9 9 9 9 10 10 9 6 5 3 5 10 10 9 10 10 10
8 6 6 9 10 11 11 13 12 14 17 16 15 13 11 11 10 10 9 9 9 9 9 9 9 9 9 9 10 9 10 10 11 6 3 3 4 9 10 10 8 8 8
7 7 8 10 11 13 14 15 15 15 15 15 15 13 12 10 11 9 9 8 8 8 8 8 8 8 8 8 9 9 10 10 9 6 3 3 4 5 10 9 7 7 6
8 7 9 11 13 13 13 15 16 15 14 13 12 12 11 10 10 10 8 7 7 7 7 7 7 7 7 7 8 8 8 8 6 5 4 5 5 8 9 9 8 8 7
8 6 7 11 12 12 13 13 13 13 12 13 12 12 11 9 9 8 7 7 6 6 5 5 5 6 6 6 7 7 7 7 5 4 4 5 5 9 9 9 9 9 10
13 7 6 9 9 11 11 11 12 12 12 12 12 10 10 9 8 8 7 5 4 3 2 2 3 4 5 6 6 6 6 6 4 4 5 5 8 9 10 9 10 10 10
8 8 6 5 7 9 9 9 9 11 11 11 10 9 8 7 6 5 4 3 2 1 2 3 4 5 6 7 8 8 9 7 5 4 5 4 9 9 10 11 10 11 11
8 7 6 5 5 5 5 7 9 9 9 9 8 7 6 6 5 5 2 1 1 2 3 4 5 6 8 9 10 11 8 7 5 5 4 4 11 9 10 12 12 11 11
9 7 6 5 5 5 5 5 6 7 7 7 6 7 5 2 1 1 2 3 4 5 6 7 7 8 9 7 8 9 8 3 4 4 3 9 11 10 12 13 13 13 13
13 10 6 6 6 5 4 5 4 4 3 3 3 4 2 2 2 3 3 5 6 7 8 8 8 8 6 3 3 5 3 5 3 4 3 10 16 14 13 13 14 15 14
14 8 7 6 6 6 5 3 2 2 2 2 3 3 2 1 0 1 2 2 3 4 3 4 4 3 4 4 3 4 4 4 3 3 5 11 15 16 15 14 15 15 16
10 10 8 7 7 6 4 3 3 3 3 2 3 3 3 1 1 1 2 2 3 2 2 2 3 4 5 5 5 5 5 5 3 3 5 10 12 16 14 15 16 18 17
11 9 9 9 7 6 6 4 4 4 3 4 3 3 3 2 2 1 3 1 2 3 3 3 4 4 5 6 5 6 6 6 6 3 3 12 19 22 23 21 21 21 21
10 10 9 10 8 6 6 6 5 4 4 3 2 0 1 2 1 1 5 4 5 4 4 4 4 4 4 5 6 6 6 6 6 6 5 7 20 25 24 23 23 22 21
9 8 10 9 7 8 7 6 4 3 3 3 3 4 5 4 6 6 4 5 4 4 4 5 5 5 5 5 5 5 5 5 6 8 8 8 9 18 23 23 24 23 22
9 9 7 8 7 7 5 4 5 5 4 5 5 5 7 7 7 6 5 4 4 4 5 4 4 4 4 4 4 4 4 5 6 9 10 9 8 8 13 22 22 22 22
12 11 8 7 8 7 8 7 9 8 7 6 6 6 8 8 7 6 5 5 4 5 6 4 4 3 5 6 5 4 4 5 6 7 10 10 10 9 7 16 20 22 25
11 11 11 7 7 9 8 7 7 7 7 6 6 7 9 7 8 7 6 7 6 6 6 5 4 5 3 5 4 3 3 4 5 6 8 8 9 10 9 11 9 12 24
6 8 8 9 7 9 7 5 5 5 5 6 7 10 9 8 9 8 6 6 6 6 6 6 3 5 7 9 4 3 3 6 7 6 4 7 11 10 11 10 9 8 9
6 6 6 5 7 7 6 6 6 5 6 7 6 9 9 10 9 9 7 6 7 5 8 8 7 3 3 7 4 2 3 2 4 6 6 9 10 8 9 10 11 12 10
8 6 8 7 8 8 11 9 9 9 6 5 6 7 9 10 10 9 9 6 8 6 6 7 7 8 4 5 9 3 3 2 4 3 6 9 8 6 6 7 10 11 12
8 8 8 9 9 8 9 10 10 8 7 6 6 6 7 10 11 9 9 8 10 6 8 7 8 7 4 4 3 6 6 3 3 5 3 5 7 6 6 6 8 9 11
10 9 8 10 11 11 11 9 10 12 9 7 7 9 7 7 11 10 10 8 7 5 8 8 6 7 6 4 4 3 3 4 4 3 3 5 4 3 4 4 4 5 9
9 9 9 12 11 11 13 15 15 14 8 4 7 4 6 5 5 6 6 6 7 7 6 5 6 8 6 6 6 6 5 3 3 3 3 4 5 4 3 4 5 6 8
Wind_Direction
174 155 155 143 134 127 159 163 158 144 137 125 114 106 102 99 96 92 91 83 78 78 75 73 73 66 61 59 60 57 49 41 33 29 34 51 49 47 44 41 36 26 33
137 148 159 131 114 98 151 170 164 156 141 127 118 111 105 105 101 99 88 85 80 77 72 67 64 60 55 52 52 50 48 39 27 34 46 24 24 43 40 35 30 23 24
133 134 133 119 103 83 111 158 153 153 138 124 113 105 106 107 103 100 91 84 78 76 75 72 68 62 53 46 41 41 41 34 34 62 51 349 341 25 31 34 23 19 15
131 124 114 115 101 85 96 130 136 136 127 114 112 105 103 103 102 93 96 90 84 78 75 72 67 60 50 45 43 41 41 32 44 51 14 336 342 10 18 14 15 12 6
117 120 124 119 109 93 94 107 119 122 117 118 113 112 116 115 115 109 98 84 78 75 71 67 60 52 43 38 36 34 32 26 23 22 346 314 314 341 10 10 3 3 346
121 121 126 123 117 110 100 102 106 107 110 112 114 121 116 106 101 101 95 88 81 75 68 59 49 37 29 23 23 25 24 16 23 6 347 322 322 317 352 3 356 347 339
126 126 127 126 125 121 119 117 115 118 119 117 118 123 121 117 112 109 104 95 85 73 61 50 32 18 9 8 10 9 6 2 8 356 338 318 293 297 323 352 349 344 341
140 125 125 124 125 124 123 125 126 124 123 124 125 123 120 117 114 110 109 108 100 86 58 28 7 350 340 340 342 341 340 339 345 331 317 305 300 288 305 339 344 343 340
126 120 116 122 124 120 123 124 124 131 131 133 131 126 119 116 114 120 128 130 127 58 350 340 328 322 319 321 328 329 326 313 334 323 319 315 309 292 300 322 332 332 330
132 128 132 128 130 126 131 131 132 130 131 129 130 128 126 135 151 157 155 220 250 284 286 291 304 313 317 330 330 323 323 318 334 326 318 304 318 300 290 304 313 315 318
150 148 141 144 143 139 137 148 141 147 145 142 138 145 141 153 195 247 266 276 288 288 291 301 316 315 323 324 322 323 326 322 318 313 308 300 313 308 296 303 309 311 311
164 167 163 158 156 151 148 155 153 148 143 145 155 169 180 187 224 241 272 284 293 292 304 317 323 315 321 320 320 331 334 329 329 321 300 315 328 315 323 320 333 335 341
171 172 175 167 162 164 153 160 162 146 145 164 181 185 203 153 257 260 287 297 284 300 314 320 333 338 353 351 348 350 338 341 338 326 325 333 339 340 341 348 352 356 9
165 178 173 178 167 176 153 167 171 165 177 192 209 191 152 161 207 249 266 276 274 282 343 359 360 1 9 2 360 349 352 358 354 342 335 342 351 7 1 14 18 19 19
173 178 175 175 173 171 170 169 171 193 196 202 191 199 166 179 203 247 246 139 17 47 50 21 20 12 8 357 353 357 3 358 358 349 354 12 40 41 41 34 29 21 17
180 178 171 177 178 167 172 176 183 182 194 192 167 129 162 173 220 215 57 37 35 20 24 41 27 17 16 3 352 356 1 1 7 15 24 40 47 43 40 38 32 28 22
172 165 170 175 166 171 179 185 180 168 108 91 74 69 57 42 63 64 57 49 33 19 24 30 21 27 16 359 357 357 7 11 35 36 37 41 35 34 37 36 32 27 25
155 165 169 169 171 165 179 125 79 79 78 76 65 53 50 55 68 72 70 53 33 38 38 33 18 24 5 358 341 2 26 25 42 52 54 46 34 27 32 36 40 36 37
171 165 163 161 162 165 90 92 86 77 68 58 49 48 47 52 57 67 59 47 41 51 39 5 35 41 4 346 334 17 55 51 43 56 56 38 35 33 27 31 39 39 47
174 169 162 163 163 108 104 95 86 74 62 51 54 45 41 42 47 63 51 43 40 37 28 28 22 23 29 338 331 32 85 55 65 63 52 36 30 29 29 34 37 40 46
157 158 165 157 150 131 127 122 98 88 81 64 58 51 47 51 52 56 61 57 44 41 39 27 7 26 13 0 341 23 88 82 72 53 42 47 33 24 26 32 43 42 28
87 99 101 113 132 146 130 116 114 117 88 81 69 59 52 49 48 57 51 60 58 36 24 29 24 24 23 23 24 302 354 23 42 63 47 39 30 21 24 42 47 39 33
85 74 97 83 94 104 111 105 101 102 94 80 65 57 39 48 37 60 56 28 49 45 48 31 26 31 22 31 38 35 356 331 331 2 45 37 21 22 13 41 47 41 32
88 76 75 82 81 99 120 125 131 124 120 99 90 82 71 48 49 23 51 42 58 45 43 28 34 35 36 31 7 42 61 60 26 330 7 35 358 24 8 43 36 36 30
100 91 84 83 76 77 86 93 105 101 102 111 106 84 56 61 74 44 42 48 60 59 54 53 45 46 43 63 37 355 21 52 38 41 306 339 340 20 20 69 52 32 28
100 99 97 92 86 91 91 97 97 99 101 132 104 86 86 54 62 63 50 47 54 64 67 53 48 46 45 51 49 43 45 35 11 15 335 330 320 305 350 71 41 24 18